EUTELSAT QUANTUM

Last updated on Thu Nov 21 2024 00:02:44 GMT+0000 (Coordinated Universal Time)

1 49056U 21069B 24325.23105135 .00000127 00000+0 00000+0 0 9996 2 49056 0.0147 332.2492 0002674 271.2607 307.1175 1.00270395 12179
UTC large
Height (km)
Speed (km/s)
/
Latitude / Longitude
Inclination (degrees)
Orbital Period (minutes)
Azimuth
Elevation
Range (km)
Doppler Factor

Next 0 passes for location: London (51.5072 / 0.1276)

Sorry there are no passes over London.